Location: Burland Observatory
(39.4088°N, 105.4217°W)
Time: 17:15:24
(UTC-07:00)

SR - Pass Details

Date: 09 December 2019
Orbit: 574 x 882 km, 66.7° (Epoch: 18 January)

Event Time Altitude Azimuth Distance (km) Brightness Sun altitude
Rises 10:24:39 0° 233° (SW) 3,233 ? 24.3°
Reaches altitude 10° 10:27:09 10° 242° (WSW) 2,356 ? 24.5°
Maximum altitude 10:32:09 36° 308° (NW) 1,305 ? 24.9°
Drops below altitude 10° 10:37:29 10° 14° (NNE) 2,509 ? 25.2°
Sets 10:40:15 0° 23° (NNE) 3,470 ? 25.4°
